Home   Weather   Poughkeepsie   Past weeks
Flag for USA

Past Weather in Poughkeepsie, New York, USA — Yesterday and Last 2 Weeks

Now
73 °F

Passing clouds.


Feels Like: 77 °F
Forecast: 70 / 64 °F
Wind: 6 mph from Southwest

Location: Dutchess County Airport

Current Time: Jun 15, 2019 at 10:50:45 pm

Latest Report: Jun 15, 2019 at 9:53 pm


Visibility: 10 mi

Pressure: 29.91 "Hg

Humidity: 48%

Dew Point: 52 °F

Location of PoughkeepsieLocation

Past Weather in Poughkeepsie — Graph

°F

Poughkeepsie Temperature Yesterday

Maximum temperature yesterday: 74 °F (at 4:53 pm)
Minimum temperature yesterday: 53 °F (at 5:53 am)
Average temperature yesterday: 63 °F

High & Low Weather Summary for the Past Weeks

 TemperatureHumidityPressure
High83 °F (Jun 8, 3:53 pm)96% (Jun 11, 4:33 am)30.32 "Hg (Jun 11, 4:33 am)
Low43 °F (Jun 4, 3:53 am)25% (Jun 15, 1:53 pm)29.60 "Hg (Jun 2, 5:53 pm)
Average66 °F64%29.92 "Hg
* Reported May 31 8:53 pm — Jun 15 8:53 pm, Poughkeepsie. Weather by CustomWeather, © 2019

Note: Actual official high and low records may vary slightly from our data, if they occured in-between our weather recording intervals... More about our weather records

Advertising

Poughkeepsie Weather History for the Previous 24 Hours

Scroll right to see more
 ConditionsComfort  
Time TempWeatherWind HumidityBarometerVisibility
8:53 pm
Sat, Jun 15
74 °FPassing clouds.3 mph41%29.91 "Hg10 mi
7:53 pm76 °FOvercast.8 mph36%29.92 "Hg10 mi
6:53 pm77 °FOvercast.12 mph33%29.92 "Hg10 mi
5:53 pm79 °FOvercast.10 mph35%29.91 "Hg10 mi
4:53 pm81 °FSunny.13 mph33%29.90 "Hg10 mi
3:53 pm81 °FSunny.15 mph29%29.92 "Hg10 mi
2:53 pm83 °FSunny.15 mph27%29.94 "Hg10 mi
1:53 pm81 °FSunny.14 mph25%29.96 "Hg10 mi
12:53 pm78 °FSunny.9 mph36%29.99 "Hg10 mi
11:53 am77 °FSunny.14 mph35%30.03 "Hg10 mi
10:53 am74 °FSunny.8 mph45%30.05 "Hg10 mi
9:53 am70 °FSunny.7 mph47%30.07 "Hg10 mi
8:53 am66 °FSunny.5 mph59%30.09 "Hg10 mi
7:53 am62 °FSunny.No wind65%30.10 "Hg10 mi
6:53 am59 °FSunny.No wind72%30.09 "Hg10 mi
5:53 am53 °FSunny.No wind80%30.08 "Hg10 mi
4:53 am57 °FClear.3 mph64%30.08 "Hg10 mi
3:53 am57 °FClear.7 mph64%30.08 "Hg10 mi
2:53 am56 °FClear.3 mph70%30.06 "Hg10 mi
1:53 am53 °FClear.No wind80%30.05 "Hg10 mi
12:53 am53 °FClear.No wind80%30.04 "Hg10 mi
11:53 pm
Fri, Jun 14
54 °FClear.No wind80%30.02 "Hg10 mi
10:53 pm57 °FClear.3 mph72%29.99 "Hg10 mi
Weather by CustomWeather, © 2019

See weather overview